FW9830 Weather Reports


Display with metric or nautical units.
time (UTC)temp
F
wind
direction
speed
MPH
gust
MPH
rain 1hr
in
rain 24hr
in
rain mn
in
humidity
%
barometer
mb
20260905034353 72 26 2.0 3.0 0.00 3.33 3.33 95 1015.2
20260905033851 72 63 1.0 5.0 0.00 3.33 3.33 95 1015.0
20260905033348 72 0 0.0 5.0 0.00 3.33 3.33 95 1014.9
20260905032846 72 90 7.0 7.0 0.00 3.33 3.33 95 1014.9
20260905032342 72 87 10.0 10.0 0.00 3.33 3.33 95 1014.5
20260905031837 72 78 7.0 9.0 0.00 3.33 3.33 95 1014.6
20260905031333 72 98 5.0 7.0 0.00 3.33 3.33 95 1014.6
20260905030828 72 70 2.0 7.0 0.00 3.33 3.33 95 1014.7
20260905030324 72 93 4.0 5.0 0.00 3.33 3.33 94 1014.9
20260905025823 72 75 0.0 3.0 0.00 3.33 3.33 94 1015.1
20260905025318 72 78 0.0 4.0 0.00 3.33 3.33 94 1015.0
20260905024815 72 66 2.0 5.0 0.00 3.33 3.33 94 1015.1
20260905024310 72 81 2.0 3.0 0.00 3.33 3.33 94 1015.0
20260905023805 72 90 2.0 4.0 0.00 3.33 3.33 94 1014.8
20260905023300 72 87 3.0 3.0 0.00 3.33 3.33 94 1014.9
20260905022759 73 92 5.0 5.0 0.00 3.33 3.33 94 1014.7
20260905022254 73 90 0.0 2.0 0.00 3.33 3.33 94 1015.0
20260905021749 73 106 0.0 3.0 0.00 3.33 3.33 94 1014.7
20260905021244 73 93 3.0 5.0 0.00 3.33 3.33 94 1014.7
20260905020744 72 90 2.0 2.0 0.00 3.33 3.33 94 1014.9
20260905020239 72 151 2.0 4.0 0.00 3.33 3.33 94 1014.7
20260905015738 72 113 3.0 5.0 0.00 3.33 3.33 93 1014.5
20260905015232 73 98 3.0 4.0 0.00 3.33 3.33 94 1014.6
20260905014731 72 117 3.0 5.0 0.00 3.33 3.33 93 1014.6
20260905014227 73 106 4.0 5.0 0.00 3.33 3.33 93 1014.4
20260905013723 73 71 3.0 4.0 0.00 3.33 3.33 93 1014.3
20260905013219 73 128 2.0 4.0 0.00 3.33 3.33 93 1014.6
20260905012714 73 100 2.0 3.0 0.00 3.33 3.33 93 1014.6
20260905012209 73 134 6.0 8.0 0.00 3.33 3.33 93 1014.5
20260905011700 73 135 6.0 9.0 0.00 3.33 3.33 93 1014.3
20260905011156 73 127 3.0 10.0 0.00 3.33 3.33 93 1013.9
20260905010655 73 135 5.0 6.0 0.00 3.33 3.33 93 1014.1
20260905010151 73 132 8.0 13.0 0.00 3.33 3.33 92 1013.8
20260905005648 73 134 5.0 6.0 0.00 3.33 3.33 92 1014.1
20260905005143 73 115 4.0 6.0 0.00 3.33 3.33 92 1014.0
20260905004637 73 132 0.0 3.0 0.00 3.33 3.33 92 1014.1
20260905004132 73 124 3.0 5.0 0.00 3.33 3.33 92 1013.9
20260905003628 73 101 3.0 8.0 0.00 3.33 3.33 91 1014.0
20260905003124 74 129 5.0 8.0 0.00 3.33 3.33 92 1014.4
20260905002619 73 143 6.0 8.0 0.00 3.33 3.33 92 1014.4
20260905002114 73 116 3.0 4.0 0.00 3.33 3.33 92 1014.5
20260905001609 74 117 1.0 5.0 0.00 3.33 3.33 91 1014.4
20260905001109 74 113 0.0 5.0 0.00 3.33 3.33 91 1014.1
20260905000604 74 119 3.0 6.0 0.00 3.33 3.33 91 1014.1
20260905000100 74 105 2.0 5.0 0.00 3.33 3.33 90 1014.0
20260904235600 74 115 4.0 5.0 0.00 3.33 3.33 90 1013.8
20260904235059 74 117 3.0 7.0 0.00 3.33 3.33 90 1013.8
20260904234554 74 113 5.0 9.0 0.00 3.33 3.33 90 1013.7
20260904234050 75 104 3.0 7.0 0.00 3.33 3.33 90 1013.9
20260904233545 75 120 3.0 5.0 0.00 3.33 3.33 90 1014.0
20260904233041 75 110 4.0 7.0 0.00 3.33 3.33 90 1013.7
20260904232538 76 120 5.0 9.0 0.00 3.33 3.33 90 1013.7
20260904232034 76 125 4.0 6.0 0.00 3.33 3.33 90 1013.4
20260904231529 77 94 5.0 9.0 0.00 3.33 3.33 90 1013.8
20260904231024 77 94 7.0 12.0 0.00 3.33 3.33 89 1013.6
20260904230523 78 86 7.0 20.0 0.00 3.33 3.33 86 1013.3
20260904230019 81 201 0.0 2.0 0.00 3.33 3.33 84 1013.5
20260904225517 81 205 3.0 4.0 0.00 3.33 3.33 84 1013.1
20260904225016 81 194 5.0 5.0 0.00 3.33 3.33 83 1013.0
20260904224511 81 194 3.0 4.0 0.00 3.33 3.33 83 1013.3
20260904224006 81 196 3.0 3.0 0.00 3.33 3.33 83 1013.0
20260904223505 82 220 2.0 4.0 0.00 3.33 3.33 83 1012.8
20260904223001 82 180 2.0 3.0 0.00 3.33 3.33 81 1012.8
20260904222455 82 180 3.0 5.0 0.00 3.33 3.33 81 1012.9
20260904221950 82 168 2.0 3.0 0.00 3.33 3.33 83 1012.9
20260904221445 81 193 3.0 5.0 0.00 3.33 3.33 84 1013.1
20260904220940 81 180 3.0 5.0 0.00 3.33 3.33 81 1013.1
20260904220440 82 167 3.0 5.0 0.00 3.33 3.33 82 1012.8
20260904215935 82 187 1.0 4.0 0.00 3.33 3.33 81 1012.8
20260904215430 82 195 5.0 5.0 0.00 3.33 3.33 79 1012.8
20260904214926 82 180 3.0 7.0 0.00 3.33 3.33 79 1013.0
20260904214421 82 200 5.0 6.0 0.00 3.33 3.33 79 1013.0
20260904213921 83 196 4.0 7.0 0.00 3.33 3.33 80 1012.9
20260904213415 82 235 5.0 7.0 0.00 3.33 3.33 79 1012.8
20260904212911 82 229 4.0 6.0 0.00 3.33 3.33 81 1013.0
20260904212410 82 240 5.0 7.0 0.00 3.33 3.33 80 1013.1
20260904211906 82 221 5.0 7.0 0.00 3.33 3.33 81 1012.7
20260904211401 82 233 3.0 5.0 0.00 3.33 3.33 80 1012.8
20260904210856 82 209 1.0 5.0 0.00 3.33 3.33 79 1012.9
20260904210355 82 223 5.0 6.0 0.00 3.33 3.33 80 1012.7
20260904205852 82 192 5.0 5.0 0.00 3.33 3.33 79 1012.7
20260904205347 82 213 3.0 6.0 0.00 3.33 3.33 80 1012.7
20260904204844 82 219 4.0 6.0 0.00 3.33 3.33 80 1012.3
20260904204339 82 233 6.0 7.0 0.00 3.33 3.33 79 1012.8
20260904203836 82 182 4.0 7.0 0.00 3.33 3.33 80 1012.7
20260904203332 83 212 3.0 5.0 0.00 3.33 3.33 79 1012.5
20260904202827 82 215 4.0 6.0 0.00 3.33 3.33 79 1012.6
20260904202323 82 217 4.0 7.0 0.00 3.33 3.33 79 1012.5
20260904201819 82 334 3.0 5.0 0.00 3.33 3.33 78 1012.7
20260904201319 82 222 3.0 6.0 0.00 3.33 3.33 79 1012.8
20260904200814 82 220 6.0 8.0 0.00 3.33 3.33 79 1012.6
20260904200307 82 229 5.0 10.0 0.00 3.33 3.33 81 1012.9
20260904195808 82 241 6.0 6.0 0.00 3.33 3.33 79 1013.0
20260904195306 81 243 8.0 9.0 0.00 3.33 3.33 81 1013.2
20260904194801 81 252 6.0 9.0 0.00 3.33 3.33 81 1013.1
20260904194300 81 304 4.0 10.0 0.00 3.33 3.33 79 1013.4
20260904193755 81 297 4.0 7.0 0.00 3.33 3.33 79 1013.4
20260904193251 81 264 7.0 9.0 0.00 3.33 3.33 80 1013.5
20260904192746 81 233 9.0 9.0 0.00 3.33 3.33 83 1013.4
20260904192241 80 228 7.0 9.0 0.00 3.33 3.33 82 1013.5
20260904191738 80 262 6.0 8.0 0.00 3.33 3.33 82 1013.5
20260904191234 80 300 3.0 10.0 0.00 3.33 3.33 83 1013.5
20260904190730 80 255 5.0 11.0 0.00 3.33 3.33 83 1013.5
20260904190226 80 267 0.0 11.0 0.00 3.33 3.33 83 1013.4
20260904185723 80 324 5.0 9.0 0.00 3.33 3.33 84 1013.4
20260904185222 80 247 4.0 10.0 0.00 3.33 3.33 84 1013.5
20260904184721 79 236 6.0 11.0 0.00 3.33 3.33 85 1013.5
20260904184217 79 262 1.0 8.0 0.00 3.33 3.33 85 1013.5
20260904183712 79 293 3.0 11.0 0.00 3.33 3.33 85 1013.8
20260904183207 78 220 3.0 9.0 0.00 3.33 3.33 86 1013.5
20260904182702 78 242 7.0 9.0 0.00 3.33 3.33 87 1013.6
20260904182157 78 234 5.0 5.0 0.00 3.33 3.33 87 1013.6
20260904181653 77 238 6.0 9.0 0.00 3.33 3.33 88 1013.6
20260904181152 77 252 10.0 10.0 0.00 3.33 3.33 87 1013.6
20260904180648 76 242 7.0 10.0 0.00 3.33 3.33 88 1013.6
20260904180143 76 248 7.0 12.0 0.00 3.33 3.33 88 1013.4
20260904175642 76 243 6.0 12.0 0.00 3.33 3.33 88 1013.5
20260904175141 76 270 10.0 11.0 0.00 3.33 3.33 89 1013.6
20260904174635 75 242 6.0 12.0 0.00 3.33 3.33 88 1013.6
20260904174132 76 324 8.0 9.0 0.00 3.33 3.33 89 1013.6
20260904173627 75 244 8.0 14.0 0.00 3.33 3.33 88 1013.8
20260904173117 75 251 11.0 15.0 0.00 3.33 3.33 88 1013.9
20260904172613 76 317 5.0 10.0 0.00 3.33 3.33 89 1013.9
20260904172112 77 258 3.0 13.0 0.00 3.33 3.33 88 1013.9
20260904171607 76 270 3.0 12.0 0.00 3.33 3.33 89 1014.1
20260904171103 76 255 5.0 10.0 0.00 3.33 3.33 89 1013.8
20260904170558 76 257 6.0 10.0 0.00 3.33 3.33 89 1013.8
20260904170055 76 256 7.0 11.0 0.00 3.33 3.33 89 1013.8
20260904165553 76 336 5.0 9.0 0.00 3.33 3.33 89 1013.8
20260904165052 76 249 7.0 9.0 0.00 3.33 3.33 88 1013.7
20260904164547 76 228 8.0 10.0 0.00 3.33 3.33 89 1013.7
20260904164043 76 248 3.0 9.0 0.00 3.33 3.33 89 1013.7
20260904163543 75 202 8.0 12.0 0.00 3.33 3.33 89 1013.5
20260904163038 75 238 9.0 11.0 0.00 3.33 3.33 89 1013.6
20260904162533 75 231 5.0 9.0 0.00 3.33 3.33 90 1013.5
20260904162028 74 216 7.0 11.0 0.00 3.33 3.33 91 1013.7
20260904161523 73 232 5.0 6.0 0.00 3.33 3.33 91 1013.5
20260904161018 73 203 5.0 6.0 0.00 3.33 3.33 92 1013.3
20260904160513 72 217 5.0 8.0 0.00 3.33 3.33 92 1013.4
20260904160010 72 212 6.0 11.0 0.00 3.33 3.33 92 1013.8
20260904155509 72 207 5.0 9.0 0.00 3.33 3.33 93 1013.6
20260904155008 72 212 0.0 10.0 0.00 3.33 3.33 93 1013.8
20260904154502 72 218 6.0 7.0 0.00 3.33 3.33 93 1013.5
20260904153957 71 234 11.0 11.0 0.00 3.33 3.33 93 1013.7
20260904153452 71 218 5.0 13.0 0.00 3.33 3.33 93 1013.9
20260904152948 71 203 7.0 10.0 0.00 3.33 3.33 93 1013.8
20260904152444 70 204 10.0 12.0 0.00 3.33 3.33 93 1013.6
20260904151943 70 213 10.0 14.0 0.00 3.33 3.33 93 1013.8
20260904151439 70 225 7.0 8.0 0.00 3.33 3.33 94 1013.8
20260904150933 69 207 7.0 10.0 0.00 3.33 3.33 93 1013.8
20260904150428 69 211 7.0 9.0 0.00 3.33 3.33 94 1013.9
20260904145926 69 218 5.0 11.0 0.00 3.33 3.33 93 1013.9
20260904145423 69 207 8.0 12.0 0.00 3.33 3.33 93 1014.0
20260904144918 69 199 10.0 11.0 0.00 3.33 3.33 93 1014.0
20260904144414 69 219 9.0 11.0 0.00 3.33 3.33 93 1014.0
20260904143909 69 207 9.0 14.0 0.00 3.33 3.33 94 1013.9
20260904143405 68 201 8.0 14.0 0.00 3.33 3.33 94 1013.8
20260904142902 68 185 9.0 14.0 0.00 3.33 3.33 95 1013.9
20260904142358 68 209 7.0 14.0 0.00 3.33 3.33 95 1013.8
20260904141857 67 196 10.0 12.0 0.00 3.33 3.33 96 1014.1
20260904141353 67 208 7.0 12.0 0.00 3.33 3.33 96 1013.9
20260904140849 67 180 7.0 10.0 0.00 3.33 3.33 96 1013.9
20260904140343 67 192 9.0 11.0 0.00 3.33 3.33 96 1013.9
20260904135843 67 199 10.0 13.0 0.00 3.33 3.33 97 1013.9
20260904135337 67 207 12.0 16.0 0.00 3.33 3.33 97 1014.0
20260904134833 67 209 13.0 16.0 0.00 3.33 3.33 97 1014.3
20260904134328 67 221 11.0 14.0 0.00 3.33 3.33 97 1013.7
20260904133828 67 190 6.0 11.0 0.00 3.33 3.33 97 1013.6
20260904133324 67 189 7.0 11.0 0.00 3.33 3.33 97 1013.7
20260904132823 67 202 11.0 15.0 0.00 3.33 3.33 97 1013.8
20260904132319 67 215 12.0 17.0 0.00 3.33 3.33 97 1014.3
20260904131818 67 216 10.0 15.0 0.00 3.33 3.33 97 1014.5
20260904131314 67 213 10.0 17.0 0.00 3.33 3.33 97 1014.4
20260904130814 67 210 6.0 12.0 0.00 3.33 3.33 97 1014.3
20260904130313 67 133 6.0 19.0 0.00 3.33 3.33 97 1014.1
20260904125809 67 135 5.0 22.0 0.00 3.33 3.33 97 1014.4
20260904125306 67 221 14.0 23.0 0.00 3.33 3.33 97 1014.4
20260904124804 67 225 10.0 18.0 0.00 3.33 3.33 97 1015.4
20260904124301 67 208 10.0 19.0 0.00 3.33 3.33 97 1015.0
20260904123755 67 227 10.0 18.0 0.00 3.33 3.33 97 1014.8
20260904123251 67 220 10.0 13.0 0.00 3.33 3.33 97 1014.8
20260904122746 67 160 8.0 14.0 0.00 3.33 3.33 97 1014.1
20260904122245 67 150 7.0 10.0 0.00 3.33 3.33 97 1014.0
20260904121741 67 161 7.0 10.0 0.00 3.33 3.33 97 1014.0
20260904121236 67 154 7.0 10.0 0.02 3.33 3.33 97 1013.8
20260904120733 67 152 5.0 11.0 0.12 3.33 3.33 97 1013.7
20260904120228 67 151 5.0 14.0 0.19 3.32 3.32 97 1013.6
20260904115723 67 151 9.0 13.0 0.14 3.30 3.30 97 1013.6
20260904115218 67 138 9.0 12.0 0.12 3.29 3.29 97 1014.1
20260904114713 67 105 3.0 12.0 0.45 3.28 3.28 97 1014.4
20260904114207 68 135 12.0 17.0 0.71 3.27 3.27 97 1013.5
20260904113702 67 170 11.0 11.0 0.33 3.17 3.17 97 1013.9
20260904113201 67 207 7.0 15.0 0.28 3.14 3.14 97 1014.1
20260904112656 67 152 13.0 15.0 0.26 3.11 3.11 97 1014.1
20260904112152 67 152 12.0 17.0 0.35 3.09 3.09 97 1014.1
20260904111647 67 189 8.0 17.0 0.31 3.07 3.07 97 1014.5
20260904111143 67 192 10.0 18.0 0.02 3.02 3.02 97 1014.9
20260904110638 68 166 9.0 15.0 0.24 3.02 3.02 97 1014.5
20260904110137 68 146 11.0 15.0 0.45 3.01 3.01 97 1014.1
20260904105632 68 154 11.0 15.0 0.24 2.98 2.98 97 1014.5
20260904105127 68 225 7.0 12.0 0.00 2.94 2.94 97 1015.3
20260904104623 68 193 7.0 15.0 0.02 2.94 2.94 97 1014.7
20260904104118 68 151 10.0 15.0 0.02 2.94 2.94 97 1014.6
20260904103614 68 154 10.0 13.0 0.14 2.93 2.93 97 1014.0
20260904103110 68 177 14.0 18.0 0.35 2.93 2.93 97 1013.7
20260904102606 68 144 12.0 21.0 0.31 2.90 2.90 97 1013.6
20260904102101 68 161 12.0 14.0 0.21 2.86 2.86 97 1014.3
20260904101557 68 133 5.0 12.0 0.17 2.84 2.84 97 1014.7
20260904101052 68 160 8.0 10.0 0.33 2.83 2.83 97 1014.8
20260904100549 68 165 2.0 9.0 0.80 2.81 2.81 97 1015.1
20260904100043 68 131 10.0 12.0 0.54 2.76 2.76 97 1014.0
20260904095538 68 134 9.0 11.0 0.14 2.68 2.68 97 1014.7
20260904095033 68 146 6.0 13.0 0.09 2.66 2.66 97 1013.7
20260904094528 68 138 10.0 18.0 0.17 2.65 2.65 97 1013.3
20260904094023 68 168 13.0 19.0 0.85 2.65 2.65 97 1014.0
20260904093520 68 167 13.0 18.0 1.30 2.62 2.62 97 1013.7
20260904093015 68 186 7.0 9.0 1.35 2.48 2.48 97 1014.8
20260904092510 68 140 6.0 12.0 1.70 2.36 2.36 97 1013.8
20260904092007 68 153 9.0 12.0 2.83 2.19 2.19 97 1014.4
20260904091503 68 146 7.0 9.0 2.72 2.02 2.02 97 1014.4
20260904091002 69 34 5.0 11.0 1.98 1.72 1.72 97 1014.7
20260904090458 69 81 3.0 9.0 2.20 1.53 1.53 97 1015.1
20260904085957 69 134 6.0 6.0 1.79 1.35 1.35 97 1014.0
20260904085453 69 98 8.0 12.0 1.06 1.15 1.15 97 1013.8
20260904084953 68 79 12.0 20.0 0.78 1.04 1.04 97 1012.8
20260904084449 69 96 12.0 15.0 0.31 0.96 0.96 97 1013.4
20260904083944 69 150 4.0 7.0 0.02 0.91 0.91 97 1014.3
20260904083441 69 180 8.0 11.0 0.50 0.91 0.91 97 1013.5
20260904082936 69 165 15.0 17.0 0.50 0.90 0.90 97 1013.0
20260904082436 69 158 9.0 13.0 0.07 0.83 0.83 97 1013.1
20260904081931 69 142 13.0 18.0 0.07 0.82 0.82 97 1013.3
20260904081427 69 172 10.0 21.0 0.07 0.81 0.81 97 1013.2
20260904080923 69 155 16.0 21.0 0.05 0.81 0.81 97 1012.8
20260904080418 70 135 11.0 19.0 0.05 0.80 0.80 97 1012.5
20260904075914 70 150 18.0 21.0 0.59 0.80 0.80 97 1012.4
20260904075410 70 198 13.0 19.0 1.06 0.79 0.79 97 1012.9
20260904074908 70 138 8.0 13.0 1.11 0.68 0.68 96 1012.6
20260904074404 70 128 2.0 3.0 1.25 0.60 0.60 96 1013.8
20260904073859 70 320 3.0 8.0 0.61 0.47 0.47 96 1014.1
20260904073354 70 252 3.0 7.0 0.47 0.39 0.39 96 1014.3
20260904072844 71 76 6.0 12.0 0.69 0.36 0.36 96 1013.4
20260904072339 70 90 3.0 6.0 0.92 0.30 0.30 96 1013.4
20260904071834 70 39 3.0 5.0 1.06 0.24 0.24 96 1013.8
20260904071330 70 45 2.0 3.0 0.40 0.13 0.13 96 1013.5
20260904070825 70 188 0.0 4.0 0.07 0.06 0.06 96 1013.6
20260904070323 70 84 0.0 3.0 0.24 0.06 0.06 96 1013.1
20260904065818 70 146 9.0 10.0 0.28 0.05 0.05 95 1012.9
20260904065314 70 147 4.0 7.0 0.02 0.00 0.00 95 1012.8
20260904064809 70 99 3.0 10.0 0.00 0.00 0.00 96 1012.5
20260904064305 70 141 6.0 15.0 0.00 0.00 0.00 96 1012.7
20260904063801 69 155 9.0 13.0 0.00 0.00 0.00 96 1012.8
20260904063256 69 190 7.0 15.0 0.00 0.00 0.00 96 1012.9
20260904062752 69 153 9.0 10.0 0.00 0.00 0.00 97 1012.7
20260904062248 69 154 8.0 14.0 0.00 0.00 0.00 97 1012.4
20260904061743 69 177 9.0 15.0 0.00 0.00 0.00 97 1012.8
20260904061239 69 168 11.0 13.0 0.00 0.00 0.00 97 1013.2
20260904060736 69 159 9.0 15.0 0.00 0.00 0.00 97 1013.5
20260904060231 69 156 8.0 9.0 0.00 0.00 0.00 97 1013.5
20260904055727 69 195 7.0 12.0 0.00 0.00 0.00 97 1013.9
20260904055221 69 163 7.0 10.0 0.00 0.00 0.00 97 1014.0
20260904054717 68 157 6.0 8.0 0.00 0.00 0.00 97 1013.5
20260904054213 68 148 5.0 8.0 0.00 0.00 0.00 97 1013.2
20260904053708 68 161 4.0 8.0 0.00 0.00 0.00 97 1013.6
20260904053208 68 160 7.0 11.0 0.00 0.00 0.00 97 1012.9
20260904052704 68 161 7.0 11.0 0.00 0.00 0.00 97 1012.9
20260904052200 68 139 5.0 9.0 0.00 0.00 0.00 97 1013.5
20260904051656 68 148 6.0 9.0 0.00 0.00 0.00 97 1013.6
20260904051150 68 134 5.0 11.0 0.00 0.00 0.00 96 1013.4
20260904050646 68 116 5.0 9.0 0.00 0.00 0.00 96 1014.0
20260904050137 68 131 4.0 7.0 0.00 0.00 0.00 96 1014.4
20260904045636 69 114 7.0 7.0 0.05 0.21 0.21 96 1014.4
20260904045131 69 114 3.0 4.0 0.21 0.21 0.21 96 1014.8
20260904044627 69 124 4.0 6.0 0.17 0.20 0.20 96 1015.2
20260904044123 69 75 6.0 7.0 0.09 0.17 0.17 96 1016.1
20260904043619 69 66 4.0 6.0 0.09 0.17 0.17 96 1016.1
20260904043115 69 98 5.0 5.0 0.05 0.16 0.16 96 1015.6
20260904042611 69 328 0.0 3.0 0.00 0.15 0.15 96 1015.7
20260904042106 69 29 0.0 2.0 0.00 0.15 0.15 96 1015.7
20260904041601 69 130 4.0 8.0 0.00 0.15 0.15 96 1014.4
20260904041057 69 137 5.0 9.0 0.00 0.15 0.15 96 1014.3
20260904040557 69 128 3.0 4.0 0.00 0.15 0.15 96 1014.8
20260904040054 69 157 4.0 7.0 0.00 0.15 0.15 96 1014.4
20260904035549 69 144 7.0 8.0 0.00 0.15 0.15 96 1014.6
20260904035048 69 147 5.0 6.0 0.00 0.15 0.15 96 1014.4